Location: Garnier
(44.3167°N, 6.2833°E)
Time: 09:16:08
(UTC+00:00)

Daily predictions for brighter satellites

Satellite Brightness Start Highest point End
(mag) Time Altitude Azimuth Time Altitude Azimuth Time Altitude Azimuth
COSMOS 2406 3.6 19:36:22 10° NNW 19:42:07 70° WSW 19:47:48 10° SSE
CZ-2C R/B 2.8 19:38:25 10° NNE 19:44:04 74° ESE 19:49:40 10° S
STARLINK-1083 3.8 19:40:55 10° NW 19:45:03 70° NNE 19:49:11 10° ESE
ARGOS 4.2 19:40:06 10° S 19:45:16 47° W 19:50:28 10° NNW
Meteor 2-4 Rocket 3.7 19:41:22 10° S 19:46:38 62° E 19:51:55 10° NNE
STARLINK-1202 3.8 19:43:02 10° WSW 19:47:10 80° NNW 19:51:20 10° NE
EXPRESS MD2 3.5 19:46:38 10° SSW 19:49:08 35° SE 19:53:12 10° ENE
STARLINK-1125 3.7 19:45:54 10° NW 19:50:03 75° NNE 19:54:11 10° ESE
Tsikada Rocket 4.4 19:46:44 10° SSW 19:52:53 68° W 19:59:01 10° N
Cosmos 2297 4.5 19:48:14 10° SSE 19:53:08 31° ESE 19:58:04 10° NE
Cosmos 1833 Rocket 2.8 19:47:57 10° NNW 19:53:36 86° WSW 19:59:13 10° SSE
Cosmos 1943 Rocket 3.9 19:51:25 10° ESE 19:53:54 13° E 19:56:24 10° ENE
STARLINK-1109 3.7 19:50:53 10° NW 19:55:03 81° NE 19:59:11 10° ESE
STARLINK-1246 4.0 19:53:01 10° WSW 19:57:09 69° NNW 20:01:18 10° NE
Cosmos 1420 Rocket 4.1 19:54:15 10° SSW 19:59:27 87° WNW 20:04:40 10° NNE
Cosmos 1452 Rocket 3.5 19:54:30 10° S 19:59:44 66° ESE 20:04:59 10° NNE
STARLINK-1091 3.6 19:55:49 10° NW 19:59:59 87° NE 20:04:04 10° SE
Cosmos 332 Rocket 4.0 19:55:20 10° S 20:00:03 50° ESE 20:04:48 10° NNE
BREEZE-M DEB 3.4 19:58:34 10° S 20:00:14 18° SE 20:02:33 10° E
Cosmos 2082 Rocket 2.3 19:54:32 10° NNW 20:00:16 68° ENE 20:05:55 10° SE
DMSP B5D2-2 4.4 19:56:17 10° N 20:01:35 76° WNW 20:06:50 10° SSW
STARLINK-1224 4.1 19:58:01 10° WSW 20:02:08 64° NNW 20:06:16 10° NE
Intercosmos 24 4.0 19:59:49 10° N 20:03:17 49° E 20:07:05 10° SSE
STARLINK-1072 3.6 20:00:50 10° WNW 20:04:59 87° SW 20:08:52 12° SE
Cosmos 1461 3.1 20:02:22 10° SSW 20:06:20 50° ESE 20:10:32 10° NE
STARLINK-1225 4.3 20:03:02 10° WSW 20:07:08 60° NNW 20:11:15 10° NE
MOS 1 Rocket 4.2 20:03:01 10° N 20:07:13 47° WNW 20:11:18 10° SW
Cosmos 1544 4.4 20:04:38 10° NNW 20:08:02 39° W 20:11:24 10° SSW
Okean 3 3.5 20:04:21 10° S 20:08:40 87° WNW 20:12:59 10° N
Cosmos 2369 Rocket 4.0 20:07:22 10° ESE 20:09:48 13° E 20:12:16 10° ENE
STARLINK-1096 3.6 20:05:49 10° WNW 20:09:58 80° SW 20:13:39 13° SE
STARLINK-1230 4.4 20:08:02 10° WSW 20:12:07 56° NNW 20:16:13 10° NE
SAR-Lupe-2 4.5 20:08:54 10° NE 20:12:08 30° E 20:15:09 11° SSE
NOSS 2-2 (C) 4.1 20:09:43 10° S 20:12:43 26° ESE 20:15:51 10° ENE
STARLINK-1079 3.7 20:10:48 10° WNW 20:14:56 74° SW 20:18:26 14° SE
Cosmos 2221 Rocket 3.8 20:12:01 10° SSW 20:16:32 79° W 20:21:07 10° N
ATLAS 2AS CENTAUR R/B 4.5 20:13:12 11° SE 20:16:36 15° ESE 20:20:32 10° ENE
SL-4 R/B 2.5 20:15:09 10° NW 20:17:56 33° WSW 20:20:30 10° S
SPOT 5 4.3 20:14:18 11° ESE 20:18:27 28° ENE 20:22:58 10° N
STARLINK-1116 3.7 20:15:47 10° WNW 20:19:55 68° SW 20:23:13 15° SE
NOSS 8 (F) 4.2 20:16:42 10° SW 20:20:01 84° NW 20:23:04 10° NE
Meteor 1-13 Rocket 4.2 20:14:31 10° S 20:20:07 79° E 20:25:53 10° NNE
ERS-1 Rocket 3.9 20:19:40 13° SE 20:23:34 34° ENE 20:28:06 10° N
Cosmos 1066 Rocket 4.4 20:22:42 10° SSE 20:27:50 47° E 20:32:57 10° NNE
STARLINK-1094 3.9 20:25:46 10° WNW 20:29:50 57° SW 20:32:47 18° SE
USA 245 2.7 20:27:56 18° SSE 20:29:56 55° ENE 20:32:29 10° N
STARLINK-1102 4.4 20:28:03 10° NW 20:32:04 46° NNE 20:35:48 12° E
Cosmos 2278 Rocket 3.7 20:27:25 10° SW 20:32:45 41° WNW 20:38:07 10° NNE
TSX-5 4.4 20:27:05 10° SSW 20:32:55 83° ESE 20:37:23 10° NNE
Resurs 01 Rocket 2.4 20:29:05 10° S 20:33:23 49° W 20:37:44 10° NNW
Nadezhda 4 Rocket 4.2 20:28:28 10° SSE 20:34:18 51° E 20:40:12 10° NNE
STARLINK-1117 4.0 20:30:46 10° WNW 20:34:48 52° SW 20:37:34 19° SSE
Okean 1 Rocket 3.5 20:30:34 10° N 20:34:54 48° ENE 20:37:54 18° SE
GPS 2-04 Rocket1 3.9 20:32:25 10° SW 20:35:02 20° S 20:35:57 18° SSE
Cosmos 1805 4.5 20:31:42 10° NNE 20:35:05 27° ENE 20:37:07 18° ESE
Cosmos 1741 Rocket 4.0 20:30:15 10° NNW 20:35:30 87° WSW 20:39:49 15° SSE
Okean 2 Rocket 3.8 20:31:17 10° NNW 20:35:35 51° W 20:39:50 10° S
STARLINK-1111 4.3 20:33:01 10° NW 20:37:03 49° NNE 20:40:34 13° E
MetOp-B 4.2 20:32:02 11° SSE 20:37:12 81° WSW 20:42:35 10° NNW
STARLINK-1078 4.1 20:35:46 10° WNW 20:39:46 48° SW 20:42:21 20° SSE
SL-8 R/B 3.9 20:37:09 10° WNW 20:41:58 71° NNE 20:46:17 13° ESE
STARLINK-1073 4.2 20:38:00 10° NW 20:42:04 52° NNE 20:45:22 15° ESE
Cosmos 2279 Rocket 4.3 20:37:29 10° NNW 20:43:40 68° W 20:49:49 10° S
Cosmos 371 Rocket 4.4 20:39:57 10° SW 20:44:37 47° WNW 20:49:20 10° N
STARLINK-1108 4.3 20:40:47 10° WNW 20:44:44 44° SW 20:47:08 21° SSE
Cosmos 1850 Rocket 4.3 20:39:43 10° NNW 20:45:03 70° WSW 20:49:25 15° S
SL-4 R/B 3.3 20:42:21 10° S 20:46:17 27° SE 20:50:20 10° ENE
ATLAS 3B CENTAUR R/B 4.1 20:34:39 10° WSW 20:46:30 29° S 20:50:57 18° SE
Cosmos 1110 Rocket 3.9 20:41:31 10° S 20:46:39 67° ESE 20:51:48 10° NNE
STARLINK-1121 4.1 20:42:58 10° NW 20:47:03 56° NNE 20:50:08 17° ESE
Terra 2.8 20:44:22 18° ESE 20:47:14 33° ENE 20:51:30 10° N
Spot 2 Rocket 3.6 20:44:03 14° S 20:48:21 78° WSW 20:53:25 10° NNW
SPOT 1/Viking Rocket 3.5 20:45:17 18° SSE 20:49:13 78° ENE 20:54:24 10° N
STARLINK-1071 4.4 20:45:48 10° WNW 20:49:41 40° SW 20:51:55 21° SSE
Cosmos 2151 Rocket 4.3 20:45:55 10° NNW 20:50:21 53° W 20:54:34 11° S
CARTOSAT-1 3.9 20:47:49 21° SE 20:50:25 51° ENE 20:54:37 10° N
Abrixas rocket 1.8 20:47:32 10° WNW 20:50:30 86° NNE 20:51:50 29° ESE
STARLINK-1106 4.0 20:47:57 10° NW 20:52:04 59° NNE 20:54:56 19° ESE
STARLINK-1110 4.5 20:49:36 10° WNW 20:53:27 37° SW 20:55:32 22° S
STARLINK-1112 3.9 20:52:54 10° NW 20:57:02 64° NNE 20:59:41 21° ESE
Aureole 2 4.0 20:56:25 10° NNW 20:59:30 79° WSW 21:00:36 35° SSE
STARLINK-1128 3.8 20:57:52 10° NW 21:02:01 68° NNE 21:04:28 23° ESE
Cosmos 1331 Rocket 3.9 20:58:17 10° SSW 21:03:26 84° ESE 21:08:39 10° NNE
Aureole 2 Rocket 3.4 21:01:25 10° SW 21:04:22 39° WNW 21:07:13 10° N
deb Kosmos-1763 4.3 21:01:41 10° NNW 21:05:14 62° WSW 21:06:57 28° S
STARLINK-1113 3.7 21:02:51 10° NW 21:07:00 74° NNE 21:09:15 26° ESE
Cosmos 1733 3.8 21:04:37 10° N 21:08:16 42° ENE 21:09:32 31° ESE
Cosmos 1437 Rocket 4.2 21:05:43 10° SW 21:09:12 35° WNW 21:12:44 10° N
COSMOS 2455 4.5 21:09:45 15° ESE 21:10:03 15° ESE 21:13:16 10° ENE
Cosmos 1378 3.0 21:09:41 27° S 21:11:38 83° E 21:15:22 10° N
STARLINK-1119 3.6 21:07:51 10° NW 21:12:01 79° NNE 21:14:04 29° ESE
Cosmos 1302 Rocket 4.2 21:10:13 21° S 21:13:34 55° ESE 21:18:44 10° NNE
Cosmos 1271 Rocket 4.5 21:14:22 18° E 21:14:32 18° E 21:17:11 10° NE
Cosmos 1242 Rocket 3.9 21:15:26 24° E 21:15:38 24° E 21:18:40 10° NE
ISS -1.7 21:14:24 10° W 21:16:32 16° SW 21:17:02 15° SW
STARLINK-1114 3.6 21:12:48 10° NW 21:16:58 85° NE 21:18:49 32° ESE
MTI 4.3 21:15:56 10° NNE 21:18:54 39° E 21:18:58 39° ESE
Lacrosse 5 3.6 21:15:47 10° WNW 21:19:35 22° WSW 21:22:07 15° SSW
Cosmos 1092 Rocket 3.9 21:15:30 21° S 21:19:46 73° E 21:25:55 10° NNE
NOSS 2-2 (D) 3.6 21:17:29 10° SW 21:21:00 60° NW 21:24:55 10° NNE
STARLINK-1130 (DARKSAT) 3.5 21:17:47 10° WNW 21:21:57 89° SSW 21:23:37 35° SE
CENTAUR R/B 3.7 21:16:41 10° NNW 21:24:29 54° NE 21:31:08 18° ESE
Cosmos 1707 4.5 21:24:35 18° E 21:24:39 18° E 21:27:20 10° NE
STARLINK-1084 3.5 21:22:46 10° WNW 21:26:56 83° SW 21:28:24 39° SE
ATLAS 3B R/B 4.1 21:21:29 10° NNW 21:27:21 30° NE 21:33:20 10° E
SL-27 R/B 3.0 21:25:15 10° N 21:28:44 46° ENE 21:29:28 39° ESE
NOSS 3-2 (C) 4.4 21:22:21 10° NNW 21:29:47 62° NE 21:35:37 21° ESE
Cosmos 1766 3.3 21:27:18 10° NNW 21:31:18 76° W 21:32:47 37° S
STARLINK-1098 3.5 21:27:45 10° WNW 21:31:55 76° SW 21:33:11 43° SE
Cosmos 1726 4.4 21:30:30 10° NE 21:32:12 13° ENE 21:32:50 12° E
Cosmos 2195 Rocket 4.5 21:30:45 23° S 21:34:52 82° E 21:41:10 10° N
Cosmos 1943 Rocket 2.1 21:31:46 13° SSW 21:36:46 88° WNW 21:42:25 10° NNE
STARLINK-1123 3.6 21:32:44 10° WNW 21:36:52 70° SW 21:37:57 46° SSE
NOSS 3-4 (A) 3.9 21:36:32 31° SSE 21:38:18 38° ESE 21:43:58 10° NE
NOSS 3-4 (C) 3.9 21:36:40 31° SSE 21:38:24 38° ESE 21:44:04 10° NE
Cosmos 1900 4.4 21:33:57 10° NW 21:38:59 72° WSW 21:41:01 36° SSE
Cosmos 1428 Rocket 4.5 21:36:33 28° S 21:40:03 71° E 21:46:19 10° NNE
STARLINK-1097 3.6 21:37:45 10° WNW 21:41:52 65° SW 21:42:45 49° SSE
Cosmos 2082 Rocket 4.3 21:39:53 10° WNW 21:43:44 19° W 21:47:33 10° SW
SeaSat 1 3.3 21:39:56 10° NE 21:44:16 30° ESE 21:44:35 30° ESE
EO 1 Del DPAF 4.4 21:41:25 10° NE 21:44:29 28° E 21:44:29 28° E
Cosmos 1975 Rocket 3.1 21:44:36 32° SSW 21:46:36 76° W 21:51:02 10° N
STARLINK-1099 3.7 21:42:44 10° WNW 21:46:49 59° SW 21:47:31 50° S
Cosmos 292 Rocket 3.7 21:48:20 38° S 21:50:08 71° ESE 21:54:59 10° NNE
BREEZE-M DEB (TANK) 4.0 21:34:38 10° WSW 21:50:49 74° NNW 21:54:50 10° ENE
STARLINK-1104 3.8 21:47:43 10° WNW 21:51:46 54° SW 21:52:18 50° S
BREEZE-M DEB (TANK) 4.1 21:48:21 10° WNW 21:52:10 41° N 21:55:45 10° ENE
Cosmos 2369 Rocket 2.1 21:49:04 21° SSW 21:52:57 90° ESE 21:58:39 10° NNE
S3M 4.5 21:49:42 10° N 21:55:39 47° ENE 21:58:11 31° SE
SPOT 5 3.9 21:53:31 24° SSW 21:56:16 42° W 22:01:21 10° NNW
STARLINK-1144 3.9 21:52:43 10° WNW 21:56:45 49° SW 21:57:05 48° SSW
ATLAS CENTAUR R/B 2.4 21:59:35 32° E 21:59:35 32° E 22:02:43 10° NE
Aureole 3 Rocket 4.4 21:53:04 10° N 21:59:28 78° E 22:03:53 31° SSE
STARLINK-1187 4.4 21:57:35 10° NW 22:00:24 31° NNE 22:01:14 27° NE
STARLINK-1103 4.0 21:57:43 10° WNW 22:01:41 45° SW 22:01:51 45° SW
Cosmos 1340 Rocket 4.2 21:58:27 10° NNE 22:01:56 27° ENE 22:02:31 26° E
ERS-1 Rocket 4.3 21:59:40 19° SW 22:02:21 31° W 22:06:49 10° NNW
Cosmos 1025 Rocket 3.1 22:02:58 50° ESE 22:03:30 54° E 22:07:42 10° NNE
Okean 2 4.5 22:02:00 24° SW 22:04:03 41° WNW 22:08:00 10° N
Cosmos 2026 Rocket 4.2 22:00:24 25° SSW 22:04:15 72° W 22:10:37 10° N
STARLINK-1214 4.5 22:01:38 10° NW 22:04:27 31° NNE 22:05:15 27° NE
Thor Agena Rocket 3.7 22:00:27 10° NNE 22:05:42 60° ESE 22:07:11 43° SSE
ATLAS 2AS CENTAUR R/B 3.0 22:00:30 20° SSW 22:06:16 68° ESE 22:14:11 10° NE
Cosmos 1656 Rocket 3.7 22:04:50 41° SSE 22:06:36 60° ESE 22:12:06 10° NNE
STARLINK-1101 4.2 22:02:44 10° WNW 22:06:38 41° SW 22:06:38 41° SW
BREEZE M DEB (TANK) 3.8 22:04:12 10° W 22:07:22 32° NNW 22:08:33 19° NE
Cosmos 1553 Rocket 3.9 22:02:56 10° N 22:09:14 80° E 22:11:43 39° SSE
BREEZE-M DEB (TANK) 4.0 21:56:39 10° WNW 22:09:51 83° NNE 22:11:56 33° ESE
Cosmos 1953 3.1 22:06:37 10° N 22:10:23 38° ENE 22:10:41 37° E
STARLINK-1228 4.1 22:07:00 10° NW 22:10:23 45° NNE 22:11:08 38° ENE
APEX 4.3 22:06:47 22° SSW 22:11:08 87° WNW 22:16:36 10° NNE
NOSS 3-2 (A) 4.2 22:03:36 10° NW 22:11:08 63° WSW 22:15:11 33° S
Cosmos 1470 2.5 22:07:37 10° N 22:11:30 87° W 22:11:51 73° S
STARLINK-1102 4.4 22:07:45 10° WNW 22:11:26 37° SW 22:11:26 37° SW
STARLINK-1235 3.9 22:09:43 10° NW 22:12:51 42° NNE 22:13:12 40° NE
Cosmos 968 Rocket 3.4 22:10:57 10° NNW 22:16:08 86° WSW 22:17:31 50° SSE
Cosmos 1655 Rocket 4.0 22:15:01 40° SSE 22:17:17 66° E 22:23:30 10° NNE
Cosmos 1455 Rocket 3.7 22:14:12 10° NNW 22:18:21 45° W 22:19:25 37° SW
SL-4 R/B 3.9 22:20:18 10° NNE 22:20:18 10° NNE 22:20:23 10° NNE
ATLAS 5 CENTAUR R/B 1.6 22:15:17 10° SW 22:21:46 69° E 22:24:02 10° NE
USA 238 DEB 4.2 22:15:55 10° NW 22:22:54 52° WSW 22:25:51 34° S
USA 238 4.2 22:16:01 10° NW 22:23:01 53° WSW 22:25:58 34° S
SL-8 R/B 4.3 22:19:53 10° WNW 22:24:13 39° SW 22:24:13 39° SW
Terra 3.3 22:23:15 23° SW 22:24:59 28° W 22:29:06 10° NW
Cosmos 1758 3.3 22:20:57 10° NNW 22:25:01 71° W 22:25:25 64° SW
SL-4 R/B 2.5 22:20:54 10° WSW 22:25:42 76° NNW 22:30:34 10° ENE
Cosmos 2228 4.4 22:24:30 10° NNE 22:28:02 25° ENE 22:28:36 24° E
STARLINK-1234 3.7 22:27:26 10° NW 22:30:16 54° N 22:30:16 54° N
In-Cosmos 22 4.2 22:30:05 48° SE 22:31:09 58° E 22:36:20 10° NNE
Cosmos 2266 Rocket 4.0 22:33:43 44° SSE 22:35:34 66° E 22:41:34 10° NNE
Cosmos 1503 Rocket 4.0 22:30:58 10° NNW 22:36:18 81° WSW 22:37:35 53° S
STARLINK-1209 3.8 22:33:35 10° NW 22:36:13 52° NNW 22:36:13 52° NNW
Meteor 2-8 Rocket 4.4 22:35:54 10° N 22:42:03 78° W 22:44:07 44° S
Cosmos 1536 Rocket 3.8 22:45:43 50° WSW 22:46:27 58° W 22:50:46 10° N
Cosmos 1674 3.4 22:48:20 42° ENE 22:48:20 42° ENE 22:51:27 10° NNE
Cosmos 1271 Rocket 4.0 22:49:29 30° W 22:50:14 33° WNW 22:53:50 10° N
Spot 4 4.1 22:53:29 51° SW 22:54:17 58° W 22:59:06 10° NNW
COSMOS 2455 2.8 22:52:50 41° SSW 22:55:06 90° SE 23:01:10 10° NNE
Cosmos 1354 Rocket 4.1 22:50:21 10° NNW 22:55:36 62° WSW 22:56:35 52° SSW
Cosmos 883 Rocket 4.4 22:50:57 10° N 22:57:08 84° E 22:58:57 48° SSE
USA 215 3.5 22:52:57 16° ESE 22:58:13 66° NNE 23:04:42 10° NW
Cosmos 1707 4.0 22:59:44 31° W 23:00:16 32° WNW 23:03:49 10° N
Helios 1A 3.5 23:01:35 45° E 23:01:58 47° ENE 23:06:00 10° N
Cosmos 2297 Rocket 4.0 22:58:11 10° N 23:02:45 24° NE 23:07:00 11° ESE
Cosmos 1174 4.2 23:06:36 49° NW 23:06:36 49° NW 23:09:58 10° NNE
Cosmos 1726 2.9 23:04:06 10° NNW 23:07:20 44° WNW 23:07:20 44° WNW
ALOS 2 2.4 23:07:47 76° SSW 23:08:03 81° WSW 23:12:28 10° NNW
Timation 2 Rocket 4.2 23:04:13 10° NNW 23:10:29 63° ENE 23:12:55 37° SE
Cosmos 2058 Rocket 4.0 23:07:14 10° N 23:11:25 38° ENE 23:11:58 37° E
COSMOS 2487 3.5 23:08:01 10° NNW 23:10:32 39° WNW 23:10:32 39° WNW
Meteor 2-5 Rocket 3.8 23:14:12 52° SE 23:15:17 63° E 23:20:51 10° NNE
CENTAUR R/B 3.6 23:07:33 10° NW 23:15:21 48° WSW 23:18:17 36° SSW
STARLINK-1231 4.4 23:11:56 10° NW 23:15:59 50° NNE 23:17:27 33° E
Meteor 1-16 Rocket 4.3 23:11:22 10° NNW 23:16:45 58° W 23:17:49 49° SW
Cosmos 1867 3.9 23:13:06 10° NW 23:18:19 46° WSW 23:18:45 45° SW
ATLAS 3B R/B 2.6 23:11:52 10° NW 23:18:42 79° SW 23:21:09 44° SSE
SL-14 R/B 4.3 23:19:11 35° ENE 23:19:11 35° ENE 23:22:17 10° NNE
FALCON 9 DEB 4.1 23:20:07 46° NNE 23:20:07 46° NNE 23:22:50 10° NE
STARLINK-1232 4.3 23:16:55 10° NW 23:20:59 53° NNE 23:22:15 37° E
Cosmos 1606 Rocket 3.4 23:17:10 10° N 23:21:30 85° W 23:21:36 83° SW
SeaSat 1 3.5 23:17:13 10° NNE 23:21:50 41° NW 23:24:21 23° WSW
Cosmos 2098 Rocket 4.3 23:20:08 43° SSW 23:22:52 83° W 23:30:25 10° N
STARLINK-1362 4.5 23:26:40 37° ENE 23:26:40 37° ENE 23:29:07 10° ENE
STARLINK-1208 4.2 23:21:52 10° NW 23:25:57 57° NNE 23:27:00 42° E
ATLAS CENTAUR R/B 3.6 23:26:41 10° NNW 23:28:35 20° NE 23:31:32 10° E
STARLINK-1373 4.3 23:30:05 41° ENE 23:30:05 41° ENE 23:32:42 10° ENE
NOSS 3-4 (A) 4.4 23:23:52 12° WSW 23:29:04 44° NW 23:35:11 10° NNE
NOSS 3-4 (C) 4.4 23:24:01 13° WSW 23:29:09 45° NW 23:35:17 10° NNE
RESURS DK-1 2.3 23:29:48 79° NW 23:29:48 79° NW 23:33:56 10° NNE
STARLINK-1365 4.2 23:31:11 45° ENE 23:31:11 45° ENE 23:33:58 10° ENE
STARLINK-1271 4.0 23:26:52 10° NW 23:30:59 61° NNE 23:31:49 49° E
STARLINK-1390 4.2 23:33:34 45° ENE 23:33:34 45° ENE 23:36:19 10° ENE
Cosmos 2084 3.4 23:33:37 79° WSW 23:33:51 85° NW 23:38:21 10° NE
Cosmos 2315 Rocket 4.1 23:29:09 10° NNW 23:35:16 63° W 23:36:58 46° SSW
Cosmos 1626 2.6 23:36:00 54° NE 23:36:00 54° NE 23:39:09 10° NNE
BREEZE-M R/B 3.5 23:31:45 28° SW 23:35:35 71° SSE 23:39:35 10° ENE
STARLINK-1154 3.9 23:31:50 10° NW 23:35:59 65° NNE 23:36:35 56° ENE
ATLAS CENTAUR R/B 3.1 23:35:42 20° W 23:37:49 30° NW 23:41:27 10° NNE
Okean 1-7 Rocket 3.5 23:37:39 74° SE 23:37:52 76° E 23:42:24 10° NNE
Cosmos 1340 Rocket 4.4 23:34:57 10° NW 23:38:06 24° W 23:38:06 24° W
Cosmos 2227 Rocket 3.4 23:34:40 10° NNW 23:39:57 38° NE 23:43:29 19° ESE
STARLINK-1197 3.8 23:36:47 10° NW 23:40:56 70° NNE 23:41:21 64° ENE
Nadezhda 2 Rocket 4.4 23:39:44 50° SSW 23:41:27 86° W 23:47:38 10° N
Cosmos 1908 4.2 23:39:23 10° NNW 23:42:29 38° WNW 23:42:29 38° WNW
CZ-4 R/B 4.0 23:38:46 10° NNE 23:43:27 54° E 23:43:50 53° ESE
STARLINK-1198 3.7 23:41:46 10° NW 23:45:55 75° NNE 23:46:07 73° ENE
Cosmos 1953 4.5 23:43:56 10° NW 23:46:22 16° W 23:46:22 16° W
STARLINK-1199 3.6 23:46:45 10° NW 23:50:55 81° NNE 23:50:55 81° NNE
Landsat 4 4.0 23:47:35 10° N 23:51:00 58° NW 23:51:00 58° NW
Meteor 2-21 Rocket 4.4 23:50:06 50° S 23:51:51 82° E 23:58:04 10° N
